Regional Weather Roundup
Issued by NWS

Home | Current Version | Previous Version | Graphics & Text | Print | Product List | Glossary On
Versions: 1 2 3 4 5 6 7 8 9 10 11 12 13 14 15 16 17 18 19 20 21 22 23 24 25 26 27 28 29 30 31 32 33 34 35 36 37 38 39 40 41 42 43 44 45 46 47 48 49 50
335
ASUS43 KMPX 232101
RWRMN
WEATHER ROUNDUP FOR MINNESOTA
NATIONAL WEATHER SERVICE TWIN CITIES/CHANHASSEN MN
300 PM CST TUE JAN 23 2018


NOTE: "FAIR" INDICATES FEW OR NO CLOUDS BELOW 12,000 FEET WITH NO
SIGNIFICANT WEATHER AND/OR OBSTRUCTIONS TO VISIBILITY. N/A MEANS
CURRENT SKY AND/OR WEATHER CONDITIONS ARE NOT AVAILABLE.

MNZ060>063-068>070-232200-
   Twin Cities Metro

CITY           SKY/WX    TMP DP  RH WIND       PRES   REMARKS
TWIN CITIES    FAIR      27  16  63 NW10      30.08R WCI  17
ST PAUL        FAIR      26  15  63 W8        30.09R WCI  18
CRYSTAL        FAIR      26  12  55 NW10      30.07R WCI  16
BLAINE         MOSUNNY   28  16  59 NW9       30.07R WCI  20
LAKEVILLE      FAIR      25  16  68 NW8       30.07R WCI  16
EDEN PRAIRIE   FAIR      28  14  55 NW8       30.06S WCI  20
SOUTH ST PAUL  FAIR      27  15  61 NW8       30.08R WCI  19
LAKE ELMO      FAIR      27  16  63 NW6       30.08R WCI  20
$$
MNZ001>005-007-008-013>017-022>024-027-028-232200-
   Northwest Minnesota

CITY           SKY/WX    TMP DP  RH WIND       PRES   REMARKS
BEMIDJI        FAIR      22  11  62 E6        30.05S WCI  14
HALLOCK        CLOUDY    19  18  93 S12       30.08S WCI   7
ROSEAU         CLOUDY    21  16  79 SW9       30.08R WCI  11
WARROAD        FAIR      18   9  68 NE3       30.09R
CROOKSTON      FAIR      21  18  86 S8        30.10R WCI  12
FOSSTON        CLOUDY    19  14  79 SW10      30.08R WCI   8
DETROIT LAKES  CLOUDY    21  18  86 S6        30.07S WCI  14
MOORHEAD       CLOUDY    21  18  86 SW7       30.11R WCI  13
PARK RAPIDS    FAIR      24  13  62 CALM      30.05R
MAHNOMEN       CLOUDY    20  16  84 SW7       30.07S WCI  11
$$
MNZ006-009>011-018-025>026-232200-
   North Central Minnesota

CITY           SKY/WX    TMP DP  RH WIND       PRES   REMARKS
BAUDETTE       FAIR      18   3  52 E3        30.06S
FLAG ISLAND    FAIR      12   1  62 CALM      30.09R
INTL FALLS     FAIR      16   0  49 NE3       30.09R
WASKISH        PTSUNNY   16   7  67 CALM      30.07S
BIG FORK       FAIR      21   7  53 CALM      30.07R
LONGVILLE      FAIR      25   7  46 CALM      30.07R
GRAND RAPIDS   FAIR      26  10  50 NW5       30.08R WCI  20
CRANE LAKE     FAIR      14  -4  44 CALM      30.11R
ORR            FAIR      18   0  45 CALM      30.05R
COOK           FAIR      19   3  49 CALM      30.07R
WALKER         FAIR      21   6  51 E3        30.06S
$$
MNZ012-019>021-037-232200-
   Northeast Minnesota

CITY           SKY/WX    TMP DP  RH WIND       PRES   REMARKS
DULUTH         FAIR      23   7  50 NW9       30.03R WCI  13
HIBBING        FAIR      20   4  50 N7        30.05R WCI  11
EVELETH        FAIR      20   2  46 NE6       30.05R WCI  12
DULUTH HARBOR  FAIR      25  12  58 SW5       30.09R WCI  19
TWO HARBORS    FAIR      30  12  47 CALM      30.02R
GRAND MARAIS     N/A     26  -4  27 N6        30.07R WCI  19
G MARAIS ARPRT FAIR      16 -11  29 NW10      29.99R WCI   3
$$
MNZ029>031-032-039>041-046>048-054>057-064-232200-
   West Central Minnesota

CITY           SKY/WX    TMP DP  RH WIND       PRES   REMARKS
FERGUS FALLS   CLOUDY    21  18  86 CALM      30.10R
WHEATON        CLOUDY    23  18  80 CALM      30.13R
MORRIS         CLOUDY    25  18  74 CALM      30.09R
ALEXANDRIA       N/A    N/A N/A N/A MISG      30.08R
ELBOW LAKE     CLOUDY    22  18  83 NW3       30.10R
WADENA         FAIR      23  16  74 W5        30.07R WCI  17
GLENWOOD       FAIR      27  18  69 W6        30.08R WCI  20
APPLETON       CLOUDY    27  19  74 W6        30.11R WCI  20
BENSON         MOSUNNY   27  18  69 NW6       30.12R WCI  20
ORTONVILLE     CLOUDY    25  18  74 W5        30.10S WCI  19
MADISON        CLOUDY    28  21  74 SW5       30.10F WCI  23
WILLMAR        FAIR      28  18  64 NW8       30.11R WCI  20
$$
MNZ033>034-036-042>043-049>051-058-059-232200-
   Central Minnesota

CITY           SKY/WX    TMP DP  RH WIND       PRES   REMARKS
ST CLOUD       FAIR      28  12  51 NW5       30.08R WCI  23
SAUK CENTRE      N/A     26  15  62 NW5       30.08R WCI  20
PAYNESVILLE    FAIR      29  17  59 NW5       30.09R WCI  24
AITKIN         FAIR      23   9  54 CALM      30.06R
PINE RIVER     FAIR      23   9  54 CALM      30.10R
BRAINERD       FAIR      27   9  46 N5        30.07R WCI  22
STAPLES        FAIR      25  12  58 W3        30.07R
LONG PRAIRIE   FAIR      27  14  59 NW3       30.08R
LITTLE FALLS   FAIR      28   5  37 NW5       30.08R WCI  23
LITCHFIELD     FAIR      30  16  55 NW8       30.08S WCI  23
BUFFALO        FAIR      29  13  50 NW7       30.08S WCI  22
MAPLE LAKE     FAIR      31  17  56 MISG      30.08S
HUTCHINSON     FAIR      31  17  57 NW10      30.08S WCI  22
$$
MNZ037-044-045-052-053-232200-
   East Central Minnesota

CITY           SKY/WX    TMP DP  RH WIND       PRES   REMARKS
PRINCETON      FAIR      28  16  59 W6        30.08R WCI  22
MORA           FAIR      27  14  59 NW6       30.08S WCI  20
CAMBRIDGE      FAIR      27  14  59 N5        30.08R WCI  21
RUSH CITY      FAIR      23  10  58 CALM      30.08R
MOOSE LAKE     FAIR      25   9  50 N3        30.05R
HINCKLEY       FAIR      27  10  50 CALM      30.07R
CLOQUET        FAIR      21   5  49 NW6       30.04R WCI  14
MCGREGOR       FAIR      27  12  54 NW3       30.07R
$$
MNZ071>073-080-081-089-090-097-098-232200-
   Southwest Minnesota

CITY           SKY/WX    TMP DP  RH WIND       PRES   REMARKS
MONTEVIDEO     CLOUDY    28  19  69 NW5       30.11R WCI  23
GRANITE FALLS  MOSUNNY   28  20  71 W8        30.12R WCI  20
CANBY          CLOUDY    27  22  81 W3        30.11S
MARSHALL       CLOUDY    26  20  77 NW7       30.11R WCI  18
REDWOOD FALLS  MOSUNNY   29  18  63 NW7       30.10R WCI  22
OLIVIA         SUNNY     30  18  59 N8        30.09R WCI  23
PIPESTONE      CLOUDY    21  19  93 W6        30.08S WCI  14
WINDOM         CLOUDY    21   9  58 W12       30.10R WCI   9
WORTHINGTON    CLOUDY    24  21  88 W10       30.11R WCI  14
JACKSON        CLOUDY    23  18  80 W12       30.10R WCI  12
TRACY          CLOUDY    26  21  82 NW5       30.10R WCI  20
SLAYTON        CLOUDY    23  20  87 W7        30.10R WCI  15
$$
MNZ065>067-074>077-082>085-091>093-232200-
   South Central Minnesota

CITY           SKY/WX    TMP DP  RH WIND       PRES   REMARKS
MANKATO        FAIR      26  17  68 NW9       30.10R WCI  17
NEW ULM        SUNNY     27  16  63 NW12      30.09S WCI  16
ST JAMES       SUNNY     25  18  74 W13       30.11R WCI  13
FAIRMONT       SUNNY     25  20  81 NW13      30.10R WCI  14
FARIBAULT      FAIR      25  16  68 W8        30.08R WCI  16
OWATONNA       FAIR      23  16  74 W8        30.07R WCI  14
WASECA         FAIR      23  16  74 NW9       30.09R WCI  13
ALBERT LEA     FAIR      21  16  79 NW7       30.07R WCI  13
$$
MNZ078>079-086>088-094>096-232200-
   Southeast Minnesota

CITY           SKY/WX    TMP DP  RH WIND       PRES   REMARKS
ROCHESTER      CLOUDY    20  16  84 NW12      30.05R WCI   8
RED WING       FAIR      25  12  58 NW6       30.08R WCI  18
STANTON        FAIR      25  16  68 W7        30.06R WCI  17
DODGE CENTER   FAIR      19  14  79 NW9       30.05R WCI   9
WINONA         CLOUDY    23  18  80 NW7       30.06R WCI  15
AUSTIN         FAIR      21  16  79 NW10      30.06R WCI  10
PRESTON        CLOUDY    21  17  86 NW10      30.04R WCI  10
$$
ABBREVIATIONS USED IN REMARKS
   TC - TEMPERATURES IN CELSIUS
  WCI - WIND CHILL INDEX
   HX - HEAT INDEX
  VSB - VISIBILITY
$$




USA.gov is the U.S. government's official web portal to all federal, state and local government web resources and services.